EA3KZ-1 Weather Reports


Display with metric or nautical units.
time (UTC)temp
F
wind
direction
speed
MPH
gust
MPH
rain 1hr
in
rain 24hr
in
rain mn
in
humidity
%
barometer
mb
20260906102535 91 116 2.0 6.0 0.00 0.00 0.00 39 1018.5
20260906101532 91 45 1.0 4.0 0.00 0.00 0.00 39 1018.6
20260906100529 89 52 1.0 4.0 0.00 0.00 0.00 41 1018.6
20260906095527 90 107 1.0 4.0 0.00 0.00 0.00 40 1018.6
20260906094524 89 41 2.0 7.0 0.00 0.00 0.00 40 1018.6
20260906093522 89 142 2.0 4.0 0.00 0.00 0.00 40 1018.7
20260906092519 88 16 3.0 8.0 0.00 0.00 0.00 42 1018.6
20260906091516 87 28 3.0 7.0 0.00 0.00 0.00 42 1018.6
20260906090614 87 37 3.0 7.0 0.00 0.00 0.00 43 1018.6
20260906085612 87 59 3.0 7.0 0.00 0.00 0.00 43 1018.4
20260906084609 87 354 3.0 7.0 0.00 0.00 0.00 43 1018.4
20260906083607 87 23 2.0 7.0 0.00 0.00 0.00 42 1018.2
20260906082604 86 3 3.0 7.0 0.00 0.00 0.00 42 1018.2
20260906081601 86 30 4.0 8.0 0.00 0.00 0.00 41 1018.1
20260906080559 86 338 3.0 6.0 0.00 0.00 0.00 41 1018.0
20260906075556 87 349 0.0 2.0 0.00 0.00 0.00 41 1018.0
20260906074553 84 0.0 0.0 0.00 0.00 0.00 44 1017.8
20260906073551 83 293 1.0 2.0 0.00 0.00 0.00 45 1017.8
20260906072548 82 323 1.0 4.0 0.00 0.00 0.00 47 1017.8
20260906071546 82 0.0 2.0 0.00 0.00 0.00 48 1017.8
20260906070543 80 8 2.0 4.0 0.00 0.00 0.00 50 1017.9
20260906065540 78 6 4.0 7.0 0.00 0.00 0.00 50 1017.7
20260906064538 80 53 2.0 6.0 0.00 0.00 0.00 48 1017.7
20260906063535 80 24 2.0 4.0 0.00 0.00 0.00 48 1017.5
20260906062533 79 4 2.0 4.0 0.00 0.00 0.00 50 1017.3
20260906061530 79 119 1.0 2.0 0.00 0.00 0.00 51 1017.1
20260906060527 78 43 2.0 4.0 0.00 0.00 0.00 51 1017.1
20260906055525 78 68 0.0 2.0 0.00 0.00 0.00 51 1016.9
20260906054522 77 0.0 2.0 0.00 0.00 0.00 51 1016.9
20260906053520 76 106 0.0 2.0 0.00 0.00 0.00 52 1016.9
20260906052517 76 0.0 0.0 0.00 0.00 0.00 53 1016.9
20260906051515 76 0.0 2.0 0.00 0.00 0.00 51 1016.9
20260906050612 76 113 0.0 2.0 0.00 0.00 0.00 48 1016.8
20260906045609 77 180 0.0 2.0 0.00 0.00 0.00 48 1016.8
20260906044607 78 90 0.0 2.0 0.00 0.00 0.00 46 1016.8
20260906043604 78 237 2.0 4.0 0.00 0.00 0.00 45 1016.9
20260906042602 75 248 0.0 2.0 0.00 0.00 0.00 52 1016.9
20260906041559 75 248 0.0 2.0 0.00 0.00 0.00 52 1017.1
20260906040556 75 240 2.0 2.0 0.00 0.00 0.00 52 1017.1
20260906035554 76 173 1.0 2.0 0.00 0.00 0.00 51 1017.1
20260906034551 76 184 1.0 2.0 0.00 0.00 0.00 48 1017.2
20260906033549 76 227 1.0 4.0 0.00 0.00 0.00 48 1017.2
20260906032546 76 236 1.0 2.0 0.00 0.00 0.00 52 1017.4
20260906031544 75 193 2.0 2.0 0.00 0.00 0.00 53 1017.3
20260906030541 76 131 1.0 4.0 0.00 0.00 0.00 48 1017.3
20260906025538 78 215 1.0 2.0 0.00 0.00 0.00 44 1017.3
20260906024536 80 0.0 0.0 0.00 0.00 0.00 40 1017.3
20260906023533 79 241 2.0 4.0 0.00 0.00 0.00 42 1017.5
20260906022530 78 248 0.0 2.0 0.00 0.00 0.00 45 1017.4
20260906021528 79 245 3.0 4.0 0.00 0.00 0.00 42 1017.5
20260906020525 77 233 3.0 4.0 0.00 0.00 0.00 47 1017.4
20260906015523 77 225 4.0 6.0 0.00 0.00 0.00 49 1017.6
20260906014520 77 229 2.0 2.0 0.00 0.00 0.00 46 1017.6
20260906013517 77 133 1.0 2.0 0.00 0.00 0.00 46 1017.7
20260906012515 78 97 1.0 2.0 0.00 0.00 0.00 45 1017.6
20260906011613 79 270 0.0 2.0 0.00 0.00 0.00 41 1017.6
20260906010610 77 243 1.0 2.0 0.00 0.00 0.00 45 1017.7
20260906005607 77 235 2.0 4.0 0.00 0.00 0.00 45 1017.8
20260906004605 77 220 0.0 2.0 0.00 0.00 0.00 46 1017.9
20260906003602 78 237 0.0 2.0 0.00 0.00 0.00 46 1017.9
20260906002600 77 228 2.0 4.0 0.00 0.00 0.00 47 1018.0
20260906001557 77 231 1.0 2.0 0.00 0.00 0.00 52 1018.2
20260906000554 77 203 1.0 2.0 0.00 0.00 0.00 54 1018.3
20260905235552 77 225 1.0 2.0 0.00 0.00 0.00 54 1018.3
20260905234550 77 0.0 0.0 0.00 0.00 0.00 54 1018.4
20260905233547 77 248 0.0 2.0 0.00 0.00 0.00 53 1018.3
20260905232544 77 241 1.0 2.0 0.00 0.00 0.00 54 1018.4
20260905231541 76 234 3.0 6.0 0.00 0.00 0.00 55 1018.5
20260905230539 77 212 1.0 2.0 0.00 0.00 0.00 56 1018.8
20260905225536 78 0.0 0.0 0.00 0.00 0.00 55 1018.7
20260905224534 78 227 1.0 2.0 0.00 0.00 0.00 55 1018.7
20260905223531 78 180 0.0 2.0 0.00 0.00 0.00 57 1018.7
20260905222528 79 218 0.0 2.0 0.00 0.00 0.00 56 1018.8
20260905221526 79 233 3.0 4.0 0.00 0.00 0.00 56 1018.7
20260905220523 80 224 2.0 4.0 0.00 0.00 0.00 56 1018.6
20260905215521 79 233 2.0 4.0 0.00 0.00 0.00 56 1018.7
20260905214518 80 210 1.0 2.0 0.00 0.00 0.00 56 1018.8
20260905213515 80 225 2.0 4.0 0.00 0.00 0.00 55 1018.9
20260905212613 80 244 2.0 4.0 0.00 0.00 0.00 56 1019.0
20260905211611 79 0.0 0.0 0.00 0.00 0.00 60 1019.0
20260905210608 79 211 1.0 2.0 0.00 0.00 0.00 61 1018.9
20260905205605 80 0.0 0.0 0.00 0.00 0.00 62 1019.1
20260905204603 79 180 0.0 2.0 0.00 0.00 0.00 64 1019.1
20260905203600 80 211 2.0 4.0 0.00 0.00 0.00 62 1019.1
20260905202557 80 269 2.0 2.0 0.00 0.00 0.00 62 1019.1
20260905201555 81 312 1.0 2.0 0.00 0.00 0.00 62 1019.1
20260905200552 80 294 2.0 4.0 0.00 0.00 0.00 63 1019.0
20260905195550 80 303 3.0 4.0 0.00 0.00 0.00 65 1018.9
20260905194548 80 305 2.0 6.0 0.00 0.00 0.00 73 1019.0
20260905193545 80 309 3.0 6.0 0.00 0.00 0.00 75 1019.0
20260905192542 81 312 2.0 4.0 0.00 0.00 0.00 75 1019.0
20260905191539 81 340 2.0 4.0 0.00 0.00 0.00 74 1018.9
20260905190537 81 344 1.0 4.0 0.00 0.00 0.00 73 1018.8
20260905185534 81 313 3.0 7.0 0.00 0.00 0.00 74 1018.8
20260905184532 82 336 3.0 7.0 0.00 0.00 0.00 72 1018.8
20260905183529 82 346 3.0 6.0 0.00 0.00 0.00 72 1018.7
20260905182526 82 19 4.0 7.0 0.00 0.00 0.00 71 1018.8
20260905181524 83 333 3.0 6.0 0.00 0.00 0.00 69 1018.6
20260905180521 84 341 3.0 6.0 0.00 0.00 0.00 66 1018.5
20260905175519 84 22 4.0 7.0 0.00 0.00 0.00 65 1018.5
20260905174516 85 3 3.0 6.0 0.00 0.00 0.00 63 1018.5
20260905173614 85 360 3.0 6.0 0.00 0.00 0.00 58 1018.5
20260905172611 85 345 5.0 8.0 0.00 0.00 0.00 56 1018.5
20260905171609 86 17 5.0 8.0 0.00 0.00 0.00 55 1018.4
20260905170606 86 42 3.0 7.0 0.00 0.00 0.00 54 1018.6
20260905165603 86 20 5.0 9.0 0.00 0.00 0.00 52 1018.4
20260905164601 86 353 4.0 9.0 0.00 0.00 0.00 51 1018.3
20260905163558 87 337 5.0 8.0 0.00 0.00 0.00 50 1018.3
20260905162555 87 335 6.0 11.0 0.00 0.00 0.00 50 1018.3
20260905161553 87 21 5.0 11.0 0.00 0.00 0.00 48 1018.4
20260905160550 88 5 6.0 11.0 0.00 0.00 0.00 45 1018.4
20260905155548 88 16 5.0 11.0 0.00 0.00 0.00 43 1018.5
20260905154545 89 71 6.0 15.0 0.00 0.00 0.00 42 1018.5
20260905153543 89 38 6.0 14.0 0.00 0.00 0.00 42 1018.3
20260905152540 89 52 5.0 11.0 0.00 0.00 0.00 41 1018.4
20260905151537 89 23 6.0 13.0 0.00 0.00 0.00 42 1018.5
20260905150535 89 319 6.0 13.0 0.00 0.00 0.00 42 1018.6
20260905145532 90 52 6.0 11.0 0.00 0.00 0.00 40 1018.5
20260905144559 92 86 4.0 11.0 0.00 0.00 0.00 38 1018.7
20260905143557 92 72 5.0 15.0 0.00 0.00 0.00 38 1018.7
20260905142554 92 22 4.0 11.0 0.00 0.00 0.00 37 1018.8
20260905141552 91 54 6.0 14.0 0.00 0.00 0.00 37 1018.8
20260905140549 92 28 5.0 11.0 0.00 0.00 0.00 37 1018.8
20260905135547 92 3 5.0 11.0 0.00 0.00 0.00 37 1018.9
20260905134544 92 33 5.0 14.0 0.00 0.00 0.00 36 1019.0
20260905133541 92 66 6.0 16.0 0.00 0.00 0.00 36 1018.8
20260905132539 93 133 4.0 14.0 0.00 0.00 0.00 35 1019.0
20260905131536 94 127 3.0 7.0 0.00 0.00 0.00 34 1019.0
20260905130534 92 15 6.0 15.0 0.00 0.00 0.00 35 1019.1
20260905125531 92 103 6.0 11.0 0.00 0.00 0.00 35 1019.1
20260905124528 92 34 7.0 11.0 0.00 0.00 0.00 36 1019.1
20260905123526 94 93 2.0 6.0 0.00 0.00 0.00 34 1019.1
20260905122523 94 26 3.0 7.0 0.00 0.00 0.00 34 1019.3
20260905121521 93 57 4.0 11.0 0.00 0.00 0.00 35 1019.4
20260905120518 92 28 6.0 11.0 0.00 0.00 0.00 35 1019.3
20260905115515 92 40 6.0 11.0 0.00 0.00 0.00 34 1019.4
20260905114613 93 64 4.0 14.0 0.00 0.00 0.00 33 1019.5
20260905113610 94 151 2.0 9.0 0.00 0.00 0.00 34 1019.5
20260905112608 92 114 4.0 11.0 0.00 0.00 0.00 35 1019.5
20260905111605 93 33 4.0 9.0 0.00 0.00 0.00 36 1019.5
20260905110603 93 93 3.0 9.0 0.00 0.00 0.00 36 1019.4
20260905105600 93 131 3.0 13.0 0.00 0.00 0.00 35 1019.4
20260905104557 92 336 4.0 9.0 0.00 0.00 0.00 38 1019.3
20260905103555 92 163 4.0 11.0 0.00 0.00 0.00 39 1019.4